Home > Time Zones > World Clock > Weather > Italy > Rome > Past weeks

Flag for Italy Weather past 2 weeks in Rome, Italy

Now
55 °F

Broken clouds.


Feels Like: 55 °F
Forecast: 54 / 68 °F
Wind: No wind

Location: Rome / Ciampino

Current Time: May 23, 2015 at 7:21:04 AM

Latest Report: May 23, 2015 at 6:45 AM


Visibility: N/A

Pressure: 29.83 "Hg

Humidity: 88%

Dew point: 52 °F

Location of RomeLocation

Historic Weather in Rome — Graph

°F

Rome temperature yesterday

Maximum temperature yesterday: 66 °F (at 12:15 PM)
Minimum temperature yesterday: 48 °F (at 5:45 AM)
Average temperature yesterday: 57 °F

Past Weeks' High & Low Weather Summary

 TemperatureHumidityPressure
High86 °F (May 17, 2:15 PM)94% (May 13, 10:15 PM)30.24 "Hg (May 13, 10:15 PM)
Low48 °F (May 22, 5:45 AM)23% (May 10, 3:45 PM)29.65 "Hg (May 15, 11:45 AM)
Average67 °F63%29.96 "Hg
* Reported May 8 6:15 AM — May 23 6:15 AM, Rome, Weather by CustomWeather, © 2015

Note: Actual official high and low records may vary slightly from our data, if they occured in-between our weather recording intervals... More about our weather records

Advertising

Rome weather history for previous 24 hours

 ConditionsComfort  
Time TempWeatherWind HumidityBarometerVisibility
6:15 AM
Sat, May 23
54 °FPartly cloudy.No wind94%29.83 "HgN/A
5:45 AM55 °FPartly cloudy.No wind88%29.83 "HgN/A
5:15 AM55 °FPartly cloudy.No wind88%29.83 "HgN/A
4:45 AM55 °FPartly cloudy.No wind88%29.83 "HgN/A
4:15 AM55 °FPassing clouds.No wind88%29.83 "HgN/A
3:45 AM55 °FPassing clouds.2 mph88%29.83 "HgN/A
3:15 AM55 °FPartly cloudy.No wind82%29.83 "HgN/A
2:45 AM55 °FPassing clouds.No wind88%29.83 "HgN/A
2:15 AM55 °FPassing clouds.1 mph88%29.83 "HgN/A
1:15 AM55 °FLight rain. Passing clouds.1 mph88%29.83 "HgN/A
12:45 AM55 °FLight rain. Passing clouds.3 mph94%29.83 "HgN/A
12:15 AM55 °FLight rain. Passing clouds.3 mph88%29.83 "HgN/A
11:45 PM
Fri, May 22
55 °FLight rain. Passing clouds.No wind88%29.83 "HgN/A
10:45 PM55 °FPassing clouds.1 mph88%29.83 "HgN/A
10:15 PM55 °FPassing clouds.No wind88%29.83 "HgN/A
9:45 PM55 °FLight rain. Passing clouds.1 mph88%29.83 "HgN/A
9:15 PM57 °FLight rain. Scattered clouds.1 mph88%29.83 "HgN/A
8:45 PM57 °FLight rain. Broken clouds.No wind88%29.83 "HgN/A
8:15 PM57 °FLight rain. Broken clouds.6 mph82%29.83 "HgN/A
7:45 PM59 °FLight rain. Broken clouds.3 mph72%29.80 "HgN/A
7:15 PM59 °FScattered clouds.3 mph68%29.80 "HgN/A
6:45 PM61 °FScattered clouds.9 mph63%29.80 "HgN/A
6:15 PM61 °FScattered clouds.6 mph59%29.80 "HgN/A
5:45 PM63 °FScattered clouds.8 mph56%29.80 "HgN/A
5:15 PM63 °FScattered clouds.8 mph59%29.80 "HgN/A
4:45 PM63 °FScattered clouds.1 mph64%29.80 "HgN/A
4:15 PM61 °FScattered clouds.2 mph72%29.80 "HgN/A
3:45 PM59 °FScattered clouds.5 mph82%29.80 "HgN/A
3:15 PM61 °FScattered clouds.No wind77%29.80 "HgN/A
2:45 PM63 °FThunderstorms. Scattered clouds.14 mph68%29.80 "Hg4 mi
2:15 PM66 °FScattered clouds.12 mph40%29.80 "HgN/A
1:45 PM66 °FScattered clouds.9 mph37%29.80 "HgN/A
1:15 PM66 °FScattered clouds.6 mph35%29.83 "HgN/A
12:45 PM66 °FScattered clouds.6 mph35%29.83 "HgN/A
12:15 PM66 °FScattered clouds.6 mph35%29.83 "HgN/A
11:45 AM64 °FPassing clouds.5 mph37%29.83 "HgN/A
11:15 AM63 °FPassing clouds.5 mph39%29.86 "HgN/A
10:45 AM63 °FPassing clouds.6 mph39%29.86 "HgN/A
10:15 AM61 °FPassing clouds.6 mph45%29.86 "HgN/A
9:45 AM59 °FPassing clouds.2 mph51%29.86 "HgN/A
9:15 AM57 °FPassing clouds.5 mph55%29.86 "HgN/A
8:45 AM55 °FPassing clouds.3 mph63%29.86 "HgN/A
8:15 AM54 °FPassing clouds.2 mph63%29.86 "HgN/A
7:45 AM52 °FPassing clouds.No wind72%29.86 "HgN/A
7:15 AM50 °FPassing clouds.3 mph71%29.86 "HgN/A
Weather by CustomWeather, © 2015

See weather overviewHow to use our weather pages